STARLINK-1554, 46055

Orbit data source: Space-Track

STARLINK-1554, 46055 is a payload satellite owned by SpaceX/Seattle (US) in LEO that was launched on Fri, 07 Aug 2020 UTC via an FALCON 9 launch vehicle from the Air Force Eastern Test Range (AFETR). Payloads include a variety of satellites, spacecraft, and rockets equipped with specific instruments for various scientific and technological missions. These include communications satellites like Starlink; space stations such as the ISS; scientific satellites like the Hubble; Earth observation satellites from companies like Planet Labs, Umbra, and HawkEye 360; GPS; miniature CubeSats for education and research; and military/defense satellites.

Loading next visibility...
STARLINK-1554 details
Identifier
46055, 2020-055AE
Orbit
LEO
Last TLE update22 hours ago
Origin
Flag of USSpaceX/Seattle (US)
ManufacturerSpaceX/Seattle
MissionOperational Commercial Communications
Bus & MotorSTARLINK, Unknown motor
Mass260 kg wet, ~248 kg dry
Launch date (UTC)
2020-08-07 (4 years ago)
Launch vehicle
FALCON 9
Launch site
Air Force Eastern Test Range (AFETR)
Object type
Payload
Rocket body
Debris
Shape & HBRBox + 1 Pan, 8.86 m
Radar Cross Section13.562 m², Large (>1 m²)

Expand to show TLE details & history

TLE from 22 hours ago
0 STARLINK-1554
1 46055U 20055AE  24360.53175355  .00036498  00000-0  24570-2 0  9991
2 46055  53.0540 288.0776 0001619 110.1235 249.9928 15.06392529242303
Epoch: 2024-12-25T12:45Z
Definitive object data (Epoch: 2024-12-25T12:45:43.506Z)
Latitude-0.00006°
Longitude2.12213°
Altitude548.497 km
Speed7.589 km/s
True Right ascension19h 12m 18s
True Declination0° 00' 00"
Sunlit
Object was in daylight at TLE epoch
Visualization TLE readout
Latitude-26.20125°
Longitude-160.33121°
Altitude554.927 km
Speed7.584 km/s
Apparent Right ascension05h 16m 17s
Apparent Declination-71° 26' 11"
Sunlit
Object is in full shadow
Visualization observer readout
Local Sidereal Time09:45:27
Azimuth200.022° SSW
Elevation-30.932°
Doppler factor1
Orbital elements
Apogee altitude548.627 km
Perigee altitude546.384 km
Semi-major axis6,925.642 km
Eccentricity0.0001619
Inclination53.054°
RAAN288.0776°
Arg. of periapsis110.1235°
True anomaly249.97537°
Mean anomaly249.9928°
Eccentric anomaly249.98408°
Mean motion3.76576 °/min
BSTAR0.002457
Orbital period95.6 mins
Loading maneuver chart data...
Loading historical data...
Loading historical data...
Loading historical data...
Loading historical data...
Loading historical data...
Loading historical data...
Loading historical data...

STARLINK-1554 Visibility forecast

Observer location: undefined°, undefined

Span
Click to sort rows by Start time (UTC) header in descending order
Start Az.
Max El. time (UTC)
Max El. Az.
Max El.
End time (UTC)
End Az.
5 mins2024-12-26 20:45:16.568Z174.114° S2024-12-26 20:48:16.568Z122.712° SE19.514°2024-12-26 20:50:16.568Z87.998° E
6 mins2024-12-26 22:24:16.568Z250.125° W2024-12-26 22:27:16.568Z327.137° NNW39.173°2024-12-26 22:30:16.568Z39.129° NE
5 mins2024-12-27 03:27:16.568Z347.515° N2024-12-27 03:29:16.568Z34.702° NE24.777°2024-12-27 03:32:16.568Z85.145° E
6 mins2024-12-27 05:06:16.568Z293.837° NW2024-12-27 05:08:16.568Z249.075° W37.688°2024-12-27 05:12:16.568Z149.121° SSE
|